"startDT [UTC]","vpos","CH4 [ppm]","stdev(CH4) [ppm]","CO2 [ppm]","stdev(CO2) [ppm]","H2O_reported [%]","stdev(H2O_reported)","CavityPressure [torr]","CavityTemp [C]","OutletValve","CH4_dry [ppm]","CO2_dry [ppm]","DasTemp [C]","EtalonTemp [C]","WarmBoxTemp [C]","MPVPosition","T_ECpre [C]","T_EC1 [C]","T_EC2 [C]","p_inlet [hPa]","p_in [hPa]","p_out [hPa]","T_inlet [C]","RH_inlet [%]","dwpt_inlet [C]","T_vent [C]","RH_vent [%]","dwpt_vent [C]","flow_vent [l min-1]","flow_inlet [l min-1]","dwpt_sample [C]","T_room [C]"
2015-07-10 00:00:00,3.0,1.87913,0.01792,395.689,4.308,0.3488,0.4835,139.721,45.000,31128.92822,1.88996,397.364,38.248,45.066,45.000,0.00,0.10,-272.70,-272.77,-10,443,-12,29.0,25.0,7.0,28.7,25.6,7.0,5.73,1.82,6.1,32.6
2015-07-10 00:01:00,3.0,1.87492,0.00050,396.903,0.045,0.0514,0.0032,139.997,45.000,30966.05607,1.87582,397.155,38.222,45.066,45.000,0.00,0.10,-272.70,-272.76,-9,444,-12,29.0,25.4,7.2,28.7,26.0,7.3,5.73,1.88,6.1,32.6
2015-07-10 00:02:00,3.0,1.87523,0.00037,397.044,0.078,0.0420,0.0027,139.992,45.000,30905.56867,1.87599,397.241,38.191,45.066,45.000,0.00,0.10,-272.71,-272.77,-10,444,-12,29.0,25.6,7.3,28.7,26.2,7.4,5.73,1.78,6.1,32.6
2015-07-10 00:03:00,3.0,1.87566,0.00033,397.293,0.068,0.0348,0.0033,140.002,45.000,30858.73496,1.87632,397.454,38.191,45.066,45.000,0.00,0.10,-272.70,-272.77,-9,444,-12,29.0,25.5,7.3,28.7,26.4,7.5,5.73,1.73,6.1,32.6
2015-07-10 00:04:00,3.0,1.87555,0.00042,397.389,0.043,0.0247,0.0022,139.995,45.000,30819.21941,1.87600,397.508,38.201,45.066,45.001,0.00,0.10,-272.70,-272.77,-10,444,-12,29.1,25.1,7.1,28.7,25.9,7.2,5.73,1.86,6.1,32.7
2015-07-10 00:05:00,3.0,1.87565,0.00035,397.459,0.028,0.0187,0.0029,139.999,45.000,30787.82615,1.87602,397.548,38.223,45.066,45.001,0.00,0.10,-272.70,-272.78,-10,444,-12,29.0,25.4,7.2,28.7,26.0,7.3,5.73,1.84,6.1,32.7
2015-07-10 00:06:00,3.0,1.87573,0.00039,397.469,0.038,0.0147,0.0018,140.000,45.000,30759.54994,1.87598,397.539,38.218,45.066,45.000,0.00,0.10,-272.70,-272.77,-9,444,-12,29.1,25.6,7.3,28.7,26.2,7.4,5.73,1.71,6.1,32.7
2015-07-10 00:07:00,3.0,1.87627,0.00037,397.498,0.033,0.0128,0.0014,139.998,45.000,30736.64899,1.87647,397.559,38.227,45.066,45.000,0.00,0.10,-272.70,-272.77,-9,444,-12,29.0,25.6,7.3,28.7,26.2,7.4,5.73,1.82,6.1,32.7
2015-07-10 00:08:00,3.0,1.87608,0.00035,397.493,0.031,0.0107,0.0020,139.996,45.000,30715.36167,1.87632,397.546,38.249,45.066,45.000,0.00,0.10,-272.70,-272.77,-9,444,-12,29.1,25.4,7.3,28.7,26.2,7.4,5.73,1.87,6.2,32.7
2015-07-10 00:09:00,3.0,1.87616,0.00043,397.509,0.035,0.0088,0.0018,139.999,45.000,30700.30590,1.87630,397.552,38.250,45.066,45.000,0.00,0.10,-272.71,-272.78,-10,445,-12,29.1,25.6,7.3,28.7,26.3,7.5,5.73,1.75,6.2,32.7
2015-07-10 00:10:00,3.0,1.87613,0.00033,397.516,0.029,0.0076,0.0013,140.000,45.000,30686.39472,1.87627,397.550,38.250,45.066,45.000,0.00,0.10,-272.71,-272.77,-9,445,-12,29.1,25.4,7.3,28.8,26.2,7.4,5.73,1.75,6.1,32.7
2015-07-10 00:11:00,3.0,1.87626,0.00030,397.523,0.024,0.0080,0.0018,140.000,45.000,30675.63720,1.87641,397.563,38.250,45.066,45.000,0.00,0.10,-272.71,-272.77,-9,445,-12,29.1,25.5,7.3,28.8,26.1,7.4,5.73,1.89,6.2,32.7
2015-07-10 00:12:00,3.0,1.87621,0.00037,397.564,0.042,0.0059,0.0011,139.999,45.000,30666.31925,1.87630,397.593,38.249,45.066,45.000,0.00,0.10,-272.70,-272.78,-9,445,-12,29.1,25.5,7.3,28.8,26.3,7.5,5.73,1.80,6.1,32.7
2015-07-10 00:13:00,3.0,1.87593,0.00041,397.546,0.034,0.0062,0.0021,140.001,45.000,30660.83374,1.87607,397.576,38.235,45.066,45.000,0.00,0.10,-272.70,-272.77,-10,445,-12,29.1,25.3,7.2,28.8,26.0,7.4,5.73,1.72,6.2,32.8
2015-07-10 00:14:00,3.0,1.87601,0.00037,397.539,0.031,0.0055,0.0012,139.996,45.000,30652.72154,1.87612,397.564,38.243,45.066,45.000,0.00,0.10,-272.70,-272.76,-9,445,-12,29.1,25.5,7.4,28.8,26.1,7.5,5.73,1.86,6.2,32.8
2015-07-10 00:15:00,3.0,1.87597,0.00033,397.556,0.029,0.0052,0.0013,139.996,45.000,30646.53705,1.87606,397.579,38.239,45.066,45.000,0.00,0.10,-272.71,-272.77,-9,445,-12,29.1,25.5,7.4,28.9,26.2,7.5,5.73,1.84,6.2,32.8
2015-07-10 00:16:00,3.0,1.87605,0.00032,397.544,0.027,0.0052,0.0020,139.995,45.000,30641.52226,1.87613,397.570,38.246,45.066,45.000,0.00,0.10,-272.71,-272.77,-9,445,-12,29.1,25.6,7.4,28.9,26.3,7.6,5.73,1.73,6.2,32.8
2015-07-10 00:17:00,3.0,1.87619,0.00034,397.560,0.031,0.0036,0.0022,139.998,45.000,30636.91772,1.87627,397.579,38.244,45.066,45.000,0.00,0.10,-272.70,-272.77,-10,445,-12,29.2,25.9,7.6,28.8,26.4,7.7,5.73,1.80,6.2,32.8
2015-07-10 00:18:00,3.0,1.87590,0.00040,397.566,0.040,0.0039,0.0023,139.998,45.000,30634.84310,1.87595,397.581,38.246,45.066,45.000,0.00,0.10,-272.70,-272.77,-10,446,-12,29.2,25.9,7.6,28.9,26.6,7.8,5.73,1.88,6.2,32.8
2015-07-10 00:19:00,3.0,1.87608,0.00047,397.562,0.028,0.0036,0.0022,140.001,45.000,30633.42338,1.87616,397.580,38.248,45.066,45.000,0.00,0.10,-272.70,-272.78,-9,446,-12,29.2,25.8,7.6,28.9,26.5,7.7,5.73,1.73,6.2,32.8
2015-07-10 00:20:00,0.0,1.92937,0.01469,389.840,3.130,1.1327,0.4279,140.222,45.000,33846.36134,1.94803,395.349,38.243,45.066,45.000,0.00,0.10,-272.70,-272.77,-9,969,-12,29.2,25.7,7.5,28.9,26.3,7.6,5.73,1.85,6.2,32.8
2015-07-10 00:21:00,0.0,1.93142,0.00056,388.142,0.182,1.3300,0.0027,140.005,45.000,34028.54752,1.95789,394.636,38.248,45.066,45.000,0.00,0.10,-272.70,-272.77,-10,970,-12,29.2,25.7,7.5,28.9,26.4,7.7,5.73,1.87,6.2,32.8
2015-07-10 00:22:00,0.0,1.93122,0.00063,387.950,0.133,1.3227,0.0041,140.002,45.000,34090.27627,1.95747,394.396,38.250,45.066,45.000,0.00,0.10,-272.71,-272.77,-9,971,-12,29.2,25.4,7.3,28.9,26.1,7.5,5.73,1.74,6.2,32.8
2015-07-10 00:23:00,0.0,1.93101,0.00052,387.918,0.085,1.3310,0.0040,140.005,45.000,34139.25205,1.95741,394.405,38.256,45.066,45.000,0.00,0.10,-272.71,-272.77,-9,970,-12,29.2,25.6,7.5,28.9,26.1,7.5,5.73,1.92,6.2,32.8
2015-07-10 00:24:00,0.0,1.93077,0.00054,387.870,0.179,1.3317,0.0032,140.000,45.000,34177.59748,1.95718,394.348,38.288,45.066,45.000,0.00,0.11,-272.70,-272.77,-9,970,-12,29.2,25.5,7.5,28.9,26.2,7.6,5.73,1.73,6.2,32.8
2015-07-10 00:25:00,0.0,1.93083,0.00042,388.072,0.143,1.3347,0.0047,140.000,45.000,34209.74553,1.95735,394.581,38.313,45.066,45.000,0.00,0.10,-272.70,-272.78,-9,971,-12,29.2,25.5,7.4,28.9,26.2,7.6,5.73,1.87,6.2,32.8
2015-07-10 00:26:00,0.0,1.93102,0.00031,388.202,0.083,1.3282,0.0041,140.001,45.000,34237.51202,1.95739,394.679,38.313,45.066,45.000,0.00,0.10,-272.70,-272.77,-10,971,-12,29.2,25.3,7.3,28.9,26.0,7.5,5.73,1.82,6.2,32.8
2015-07-10 00:27:00,0.0,1.93119,0.00050,388.411,0.169,1.3195,0.0032,140.002,45.000,34260.57911,1.95734,394.846,38.312,45.066,45.000,0.00,0.10,-272.70,-272.77,-10,971,-12,29.2,25.1,7.2,28.9,25.9,7.4,5.73,1.78,6.2,32.9
2015-07-10 00:28:00,0.0,1.93118,0.00036,388.188,0.065,1.3178,0.0034,140.001,45.000,34280.89030,1.95734,394.618,38.313,45.066,45.000,0.00,0.10,-272.70,-272.77,-9,970,-12,29.3,25.1,7.2,28.9,25.8,7.4,5.73,1.90,6.2,32.8
2015-07-10 00:29:00,0.0,1.93054,0.00057,388.084,0.116,1.3193,0.0061,140.000,45.000,34297.85111,1.95674,394.515,38.312,45.066,45.000,0.00,0.10,-272.71,-272.77,-9,970,-12,29.2,25.2,7.3,29.0,25.7,7.4,5.73,1.72,6.2,33.0
2015-07-10 00:30:00,0.0,1.93003,0.00038,387.893,0.057,1.3255,0.0060,140.005,45.000,34309.90335,1.95634,394.354,38.314,45.066,45.000,0.00,0.10,-272.70,-272.77,-9,972,-12,29.2,25.1,7.3,29.0,25.9,7.4,5.73,1.90,6.2,32.9
2015-07-10 00:31:00,0.0,1.92974,0.00039,387.754,0.124,1.3246,0.0054,139.996,45.000,34318.10554,1.95601,394.205,38.316,45.066,45.000,0.00,0.10,-272.69,-272.77,-9,970,-12,29.2,25.3,7.3,28.9,25.8,7.4,5.73,1.75,6.2,32.9
2015-07-10 00:32:00,0.0,1.92969,0.00042,387.680,0.098,1.3423,0.0076,140.003,45.000,34330.01529,1.95630,394.220,38.316,45.066,45.000,0.00,0.10,-272.70,-272.78,-9,970,-12,29.2,25.7,7.6,29.0,26.1,7.6,5.73,1.84,6.2,32.9
2015-07-10 00:33:00,0.0,1.92892,0.00035,387.783,0.142,1.3442,0.0035,140.002,45.000,34340.12874,1.95567,394.339,38.314,45.066,45.000,0.00,0.10,-272.70,-272.77,-9,971,-12,29.2,25.5,7.5,29.0,26.3,7.7,5.73,1.84,6.3,33.0
2015-07-10 00:34:00,0.0,1.92935,0.00053,387.781,0.124,1.3308,0.0034,139.998,45.000,34346.20232,1.95568,394.258,38.313,45.066,45.000,0.00,0.10,-272.70,-272.77,-9,971,-12,29.3,25.3,7.4,29.0,26.0,7.5,5.73,1.75,6.3,32.9
2015-07-10 00:35:00,0.0,1.93014,0.00049,387.923,0.133,1.3317,0.0033,140.005,45.000,34355.97743,1.95655,394.419,38.319,45.066,45.000,0.00,0.10,-272.70,-272.77,-9,970,-12,29.3,25.3,7.4,29.0,25.9,7.5,5.73,1.90,6.2,32.9
2015-07-10 00:36:00,0.0,1.93014,0.00040,387.763,0.120,1.3269,0.0036,140.000,45.000,34357.33048,1.95643,394.215,38.325,45.066,45.000,0.00,0.10,-272.71,-272.77,-9,971,-12,29.3,25.3,7.4,29.0,25.8,7.4,5.73,1.71,6.3,32.9
2015-07-10 00:37:00,0.0,1.93005,0.00052,387.849,0.117,1.3394,0.0032,139.998,45.000,34360.95991,1.95667,394.380,38.340,45.066,45.000,0.00,0.10,-272.70,-272.77,-9,970,-12,29.3,25.4,7.4,29.0,26.1,7.6,5.73,1.91,6.2,32.9
2015-07-10 00:38:00,0.0,1.93014,0.00054,387.941,0.134,1.3342,0.0039,139.998,45.000,34363.12092,1.95658,394.438,38.350,45.066,45.000,0.00,0.11,-272.70,-272.77,-9,970,-12,29.3,25.4,7.5,29.0,26.0,7.5,5.73,1.76,6.3,32.9
2015-07-10 00:39:00,0.0,1.93045,0.00062,387.949,0.066,1.3438,0.0042,140.005,45.000,34367.30126,1.95704,394.503,38.323,45.066,45.000,0.00,0.10,-272.70,-272.77,-9,969,-12,29.3,25.4,7.5,29.0,26.1,7.6,5.73,1.84,6.3,32.8
2015-07-10 00:40:00,0.0,1.93100,0.00057,387.949,0.144,1.3342,0.0035,140.000,45.000,34369.54727,1.95750,394.451,38.330,45.066,45.000,0.00,0.10,-272.70,-272.78,-10,970,-12,29.3,25.3,7.4,29.0,26.0,7.5,5.73,1.82,6.3,32.9
2015-07-10 00:41:00,0.0,1.93034,0.00047,387.949,0.111,1.3477,0.0095,140.002,45.000,34372.48405,1.95710,394.518,38.361,45.066,45.000,0.00,0.10,-272.70,-272.76,-9,970,-12,29.3,25.7,7.6,29.0,26.1,7.6,5.73,1.76,6.3,32.9
2015-07-10 00:42:00,0.0,1.93053,0.00068,387.987,0.126,1.3533,0.0031,140.005,45.000,34374.37203,1.95739,394.589,38.358,45.066,45.000,0.00,0.10,-272.71,-272.77,-8,968,-12,29.3,25.6,7.6,29.0,26.3,7.7,5.73,1.89,6.3,32.9
2015-07-10 00:43:00,0.0,1.93073,0.00050,388.050,0.085,1.3439,0.0027,139.999,45.000,34375.89024,1.95743,394.609,38.361,45.066,45.000,0.00,0.10,-272.70,-272.77,-9,971,-12,29.3,25.5,7.5,29.0,26.1,7.6,5.73,1.72,6.3,32.9
2015-07-10 00:44:00,0.0,1.93106,0.00038,388.039,0.094,1.3450,0.0022,139.998,45.000,34376.10340,1.95777,394.599,38.370,45.066,45.000,0.00,0.10,-272.70,-272.77,-9,970,-12,29.3,25.4,7.5,29.0,26.2,7.6,5.73,1.92,6.3,32.9
2015-07-10 00:45:00,0.0,1.93039,0.00050,387.989,0.073,1.3423,0.0031,140.000,45.000,34380.54070,1.95708,394.531,38.369,45.066,45.000,0.00,0.10,-272.70,-272.77,-9,968,-12,29.3,25.5,7.5,29.0,26.1,7.5,5.73,1.74,6.3,32.9
2015-07-10 00:46:00,0.0,1.93008,0.00052,388.147,0.072,1.3552,0.0047,140.003,45.000,34379.93625,1.95698,394.759,38.362,45.066,45.000,0.00,0.10,-272.70,-272.77,-9,970,-12,29.3,25.7,7.7,29.0,26.3,7.7,5.73,1.87,6.3,32.9
2015-07-10 00:47:00,0.0,1.93095,0.00058,388.135,0.106,1.3464,0.0065,139.999,45.000,34378.45880,1.95761,394.701,38.370,45.066,45.000,0.00,0.11,-272.70,-272.77,-9,970,-12,29.3,25.5,7.5,29.0,26.2,7.7,5.73,1.77,6.3,32.9
2015-07-10 00:48:00,0.0,1.93044,0.00071,388.135,0.090,1.3423,0.0037,139.996,45.000,34377.16293,1.95716,394.685,38.375,45.066,45.000,0.00,0.10,-272.70,-272.77,-9,968,-12,29.3,25.4,7.5,29.0,26.1,7.6,5.73,1.79,6.3,32.9
2015-07-10 00:49:00,0.0,1.92903,0.00106,388.198,0.180,1.3448,0.0034,140.002,45.000,34378.96034,1.95579,394.751,38.375,45.066,45.000,0.00,0.10,-272.70,-272.77,-9,969,-12,29.3,25.5,7.5,29.0,26.1,7.6,5.73,1.85,6.3,32.9
2015-07-10 00:50:00,0.0,1.92831,0.00077,388.289,0.072,1.3491,0.0033,140.001,45.000,34380.54001,1.95505,394.878,38.375,45.066,45.000,0.00,0.10,-272.70,-272.77,-9,969,-12,29.4,25.5,7.6,29.0,26.1,7.6,5.73,1.73,6.3,32.9
2015-07-10 00:51:00,0.0,1.92867,0.00061,388.309,0.083,1.3429,0.0028,140.002,45.000,34381.10133,1.95533,394.861,38.371,45.066,45.000,0.00,0.10,-272.70,-272.77,-9,968,-12,29.3,25.4,7.4,29.0,26.1,7.6,5.73,1.91,6.3,32.9
2015-07-10 00:52:00,0.0,1.92896,0.00073,388.346,0.095,1.3405,0.0023,140.001,45.000,34383.43615,1.95552,394.893,38.375,45.066,45.000,0.00,0.11,-272.70,-272.77,-9,969,-12,29.3,25.3,7.4,29.0,26.0,7.6,5.73,1.71,6.3,32.9
2015-07-10 00:53:00,0.0,1.92898,0.00064,388.441,0.096,1.3341,0.0045,140.003,45.000,34386.25408,1.95545,394.950,38.374,45.066,45.000,0.00,0.10,-272.71,-272.77,-10,969,-12,29.3,25.1,7.3,29.0,25.9,7.5,5.73,1.91,6.3,32.9
2015-07-10 00:54:00,0.0,1.92809,0.00057,388.416,0.104,1.3328,0.0044,140.000,45.000,34383.37410,1.95450,394.917,38.374,45.066,45.000,0.00,0.10,-272.70,-272.77,-8,968,-12,29.4,25.2,7.4,29.0,25.8,7.4,5.73,1.73,6.3,32.9
2015-07-10 00:55:00,0.0,1.92822,0.00054,388.381,0.121,1.3383,0.0041,139.994,45.000,34379.48285,1.95471,394.918,38.379,45.066,45.000,0.00,0.10,-272.70,-272.76,-9,969,-12,29.4,25.2,7.4,29.0,25.9,7.5,5.73,1.87,6.3,33.0
2015-07-10 00:56:00,0.0,1.92835,0.00106,388.283,0.157,1.3365,0.0031,139.996,45.000,34376.94346,1.95482,394.806,38.377,45.066,45.000,0.00,0.10,-272.71,-272.77,-9,968,-12,29.3,25.3,7.4,29.0,25.9,7.5,5.73,1.79,6.3,33.0
2015-07-10 00:57:00,0.0,1.92767,0.00118,388.261,0.061,1.3496,0.0057,139.999,45.000,34378.15881,1.95443,394.842,38.375,45.066,45.000,0.00,0.10,-272.70,-272.77,-8,968,-12,29.3,25.5,7.6,29.1,26.1,7.6,5.73,1.79,6.3,33.0
2015-07-10 00:58:00,0.0,1.92784,0.00038,388.328,0.076,1.3474,0.0035,140.000,45.000,34377.10549,1.95463,394.903,38.375,45.066,45.000,0.00,0.10,-272.70,-272.77,-9,968,-12,29.4,25.3,7.5,29.0,26.1,7.6,5.73,1.84,6.3,33.0
2015-07-10 00:59:00,0.0,1.92845,0.00063,388.323,0.104,1.3342,0.0046,139.999,45.000,34374.25433,1.95488,394.842,38.375,45.066,45.000,0.00,0.10,-272.70,-272.77,-9,968,-12,29.4,25.1,7.4,29.1,25.8,7.5,5.73,1.74,6.3,32.9
2015-07-10 01:00:00,0.0,1.92670,0.00067,388.436,0.169,1.3463,0.0059,140.007,45.000,34375.13676,1.95342,394.998,38.374,45.066,45.000,0.00,0.10,-272.70,-272.77,-8,967,-12,29.4,25.5,7.6,29.1,25.9,7.6,5.73,1.90,6.3,32.9
2015-07-10 01:01:00,0.0,1.92640,0.00072,388.517,0.112,1.3492,0.0087,140.002,45.000,34376.02761,1.95317,395.109,38.372,45.066,45.000,0.00,0.10,-272.70,-272.77,-10,969,-12,29.4,25.3,7.5,29.1,26.2,7.7,5.73,1.72,6.3,32.9
2015-07-10 01:02:00,0.0,1.92707,0.00053,388.583,0.093,1.3285,0.0051,139.994,45.000,34371.25068,1.95334,395.065,38.375,45.066,45.000,0.00,0.10,-272.70,-272.77,-8,967,-12,29.4,24.9,7.3,29.0,25.7,7.4,5.73,1.91,6.3,32.9
2015-07-10 01:03:00,0.0,1.92670,0.00047,388.546,0.092,1.3308,0.0034,139.995,45.000,34370.54789,1.95310,395.046,38.377,45.066,45.000,0.00,0.10,-272.70,-272.77,-9,967,-13,29.4,25.1,7.4,29.0,25.6,7.4,5.73,1.73,6.3,33.0
2015-07-10 01:04:00,0.0,1.92646,0.00059,388.483,0.096,1.3393,0.0045,139.996,45.000,34369.36416,1.95298,395.019,38.413,45.066,45.000,0.00,0.10,-272.70,-272.77,-9,968,-12,29.4,25.3,7.5,29.0,25.9,7.5,5.73,1.86,6.4,33.0
2015-07-10 01:05:00,0.0,1.92621,0.00039,388.495,0.109,1.3501,0.0064,140.002,45.000,34368.70495,1.95290,395.088,38.438,45.066,45.000,0.00,0.10,-272.70,-272.77,-8,967,-12,29.4,25.5,7.6,29.0,26.1,7.6,5.73,1.76,6.4,33.0
2015-07-10 01:06:00,0.0,1.92612,0.00061,388.193,0.149,1.3515,0.0035,139.997,45.000,34368.33082,1.95293,394.792,38.442,45.066,45.000,0.00,0.10,-272.71,-272.77,-9,967,-12,29.4,25.6,7.6,29.1,26.1,7.7,5.73,1.80,6.4,33.0
2015-07-10 01:07:00,0.0,1.92582,0.00048,388.534,0.045,1.3622,0.0044,139.998,45.000,34363.90249,1.95279,395.183,38.446,45.066,45.000,0.00,0.10,-272.70,-272.77,-8,966,-12,29.4,25.8,7.7,29.0,26.3,7.7,5.73,1.82,6.4,33.0
2015-07-10 01:08:00,0.0,1.92617,0.00050,388.541,0.108,1.3417,0.0103,140.004,45.000,34367.83537,1.95274,395.094,38.452,45.065,45.000,0.00,0.11,-272.71,-272.76,-9,967,-12,29.4,25.2,7.4,29.1,26.1,7.6,5.73,1.76,6.4,33.0
2015-07-10 01:09:00,0.0,1.92632,0.00049,388.620,0.062,1.3347,0.0029,140.007,45.000,34371.66240,1.95274,395.137,38.451,45.066,45.000,0.00,0.10,-272.71,-272.77,-9,967,-12,29.4,25.2,7.4,29.1,25.7,7.4,5.73,1.87,6.4,33.0
2015-07-10 01:10:00,0.0,1.92564,0.00042,388.659,0.046,1.3472,0.0037,139.992,45.000,34363.41713,1.95233,395.237,38.438,45.066,45.000,0.00,0.10,-272.70,-272.77,-8,966,-12,29.4,25.4,7.5,29.1,25.9,7.5,5.73,1.71,6.4,33.0
2015-07-10 01:11:00,0.0,1.92525,0.00055,388.464,0.109,1.3529,0.0024,139.999,45.000,34365.98827,1.95208,395.079,38.439,45.066,45.000,0.00,0.10,-272.70,-272.77,-10,967,-12,29.4,25.5,7.5,29.1,26.1,7.7,5.73,1.89,6.4,33.0
2015-07-10 01:12:00,0.0,1.92564,0.00038,388.521,0.086,1.3549,0.0047,140.006,45.000,34363.88585,1.95246,395.133,38.437,45.066,45.000,0.00,0.10,-272.70,-272.77,-8,965,-12,29.4,25.6,7.6,29.1,26.1,7.7,5.73,1.70,6.4,32.9
2015-07-10 01:13:00,0.0,1.92574,0.00055,388.404,0.073,1.3626,0.0025,140.000,45.000,34359.84665,1.95272,395.061,38.438,45.066,45.000,0.00,0.10,-272.71,-272.77,-9,966,-12,29.4,25.7,7.7,29.1,26.3,7.8,5.73,1.90,6.4,33.0
2015-07-10 01:14:00,0.0,1.92558,0.00053,388.292,0.138,1.3618,0.0071,139.995,45.000,34358.09742,1.95258,394.941,38.445,45.066,45.000,0.00,0.10,-272.70,-272.77,-9,965,-12,29.4,25.7,7.7,29.1,26.2,7.7,5.73,1.70,6.4,33.0
2015-07-10 01:15:00,0.0,1.92538,0.00059,388.066,0.264,1.3766,0.0083,139.997,45.000,34358.71089,1.95267,394.795,38.446,45.066,45.000,0.00,0.10,-272.70,-272.77,-8,965,-12,29.4,26.2,7.9,29.1,26.5,7.9,5.73,1.89,6.4,32.9
2015-07-10 01:16:00,0.0,1.92466,0.00036,388.060,0.145,1.3904,0.0048,139.998,45.000,34355.10322,1.95224,394.846,38.454,45.066,45.000,0.00,0.10,-272.70,-272.78,-9,964,-12,29.4,26.3,8.0,29.1,26.8,8.1,5.73,1.71,6.4,32.9
2015-07-10 01:17:00,0.0,1.92493,0.00046,388.204,0.077,1.3980,0.0022,140.000,45.000,34351.56048,1.95263,395.036,38.477,45.066,45.000,0.00,0.10,-272.70,-272.77,-8,965,-12,29.4,26.3,8.1,29.1,27.0,8.2,5.73,1.85,6.4,33.0
2015-07-10 01:18:00,0.0,1.92543,0.00056,388.175,0.072,1.3704,0.0090,140.001,45.000,34353.87190,1.95258,394.876,38.465,45.066,45.000,0.00,0.10,-272.70,-272.77,-9,965,-13,29.4,25.7,7.7,29.1,26.6,8.0,5.73,1.75,6.4,33.0
2015-07-10 01:19:00,0.0,1.92550,0.00035,388.090,0.121,1.3691,0.0058,140.003,45.000,34348.77554,1.95261,394.767,38.462,45.066,45.000,0.00,0.10,-272.71,-272.77,-8,963,-13,29.4,25.9,7.8,29.1,26.4,7.8,5.73,1.81,6.4,33.0
2015-07-10 01:20:00,0.0,1.92496,0.00046,388.358,0.154,1.3848,0.0035,140.000,45.000,34344.75698,1.95245,395.126,38.445,45.066,45.000,0.00,0.10,-272.70,-272.77,-8,963,-12,29.4,26.2,8.0,29.1,26.7,8.0,5.73,1.80,6.4,33.0
2015-07-10 01:21:00,0.0,1.92506,0.00060,388.265,0.084,1.3767,0.0128,139.997,45.000,34349.84011,1.95232,394.996,38.438,45.066,45.000,0.00,0.11,-272.71,-272.77,-9,963,-12,29.4,25.8,7.8,29.1,26.7,8.0,5.73,1.78,6.4,33.0
2015-07-10 01:22:00,0.0,1.92548,0.00043,388.154,0.104,1.3638,0.0042,139.996,45.000,34343.59724,1.95249,394.808,38.438,45.066,45.000,0.00,0.10,-272.71,-272.77,-8,965,-12,29.4,25.8,7.7,29.1,26.3,7.8,5.73,1.83,6.4,33.0
2015-07-10 01:23:00,0.0,1.92532,0.00054,388.227,0.085,1.3795,0.0029,139.989,45.000,34339.21105,1.95264,394.964,38.433,45.066,45.000,0.00,0.10,-272.71,-272.77,-9,962,-12,29.4,26.0,7.8,29.1,26.6,8.0,5.73,1.76,6.4,33.0
2015-07-10 01:24:00,0.0,1.92545,0.00054,388.320,0.161,1.3676,0.0022,139.998,45.000,34345.30694,1.95254,395.009,38.434,45.066,45.000,0.00,0.10,-272.70,-272.77,-8,964,-12,29.4,25.8,7.8,29.1,26.4,7.9,5.73,1.85,6.4,33.0
2015-07-10 01:25:00,0.0,1.92530,0.00035,388.248,0.100,1.3703,0.0030,139.999,45.000,34337.74609,1.95250,394.935,38.438,45.066,45.000,0.00,0.10,-272.70,-272.77,-8,962,-12,29.4,25.9,7.8,29.1,26.4,7.9,5.73,1.72,6.4,33.0
2015-07-10 01:26:00,0.0,1.92495,0.00048,388.101,0.077,1.3765,0.0061,139.995,45.000,34331.78673,1.95221,394.825,38.440,45.066,45.000,0.00,0.10,-272.70,-272.77,-9,962,-12,29.4,25.9,7.8,29.1,26.6,7.9,5.73,1.88,6.4,33.0
2015-07-10 01:27:00,0.0,1.92518,0.00045,388.057,0.164,1.3771,0.0031,139.997,45.000,34329.27951,1.95247,394.778,38.440,45.066,45.000,0.00,0.10,-272.71,-272.76,-8,960,-13,29.4,26.0,7.9,29.1,26.6,8.0,5.73,1.71,6.4,33.0
2015-07-10 01:28:00,0.0,1.92482,0.00051,388.133,0.054,1.3904,0.0062,139.999,45.000,34303.84223,1.95242,394.925,38.443,45.066,45.000,0.00,0.10,-272.70,-272.77,-8,957,-13,29.4,26.2,8.0,29.1,26.8,8.1,5.73,1.88,6.4,33.0
2015-07-10 01:29:00,0.0,1.92470,0.00068,388.102,0.206,1.3858,0.0028,139.998,45.000,34311.49008,1.95207,394.867,38.439,45.066,45.000,0.00,0.11,-272.71,-272.77,-7,957,-13,29.4,26.1,8.0,29.1,26.7,8.0,5.73,1.69,6.5,33.0
2015-07-10 01:30:00,0.0,1.92485,0.00074,388.148,0.081,1.3885,0.0033,139.965,45.000,34173.71226,1.95247,394.935,38.438,45.066,45.000,0.00,0.10,-272.70,-272.78,-8,940,-13,29.4,26.1,7.9,29.1,26.7,8.0,5.73,1.86,6.4,33.1
2015-07-10 01:31:00,0.0,1.92445,0.00047,388.125,0.084,1.3815,0.0072,139.998,45.000,33872.54000,1.95179,394.877,38.442,45.066,45.000,0.00,0.10,-272.70,-272.77,-6,892,-13,29.5,25.9,7.9,29.1,26.8,8.1,5.73,1.66,6.4,33.0
2015-07-10 01:32:00,0.0,1.92478,0.00056,388.178,0.127,1.3808,0.0038,140.001,45.000,33839.47107,1.95210,394.920,38.442,45.066,45.000,0.00,0.10,-272.70,-272.77,-6,889,-13,29.4,26.1,7.9,29.1,26.6,8.0,5.73,1.76,6.5,33.0
2015-07-10 01:33:00,0.0,1.92448,0.00055,388.157,0.160,1.3764,0.0024,140.002,45.000,33825.30632,1.95178,394.877,38.449,45.066,45.000,0.00,0.10,-272.71,-272.77,-5,886,-13,29.4,25.9,7.9,29.1,26.6,8.0,5.73,1.76,6.5,33.0
2015-07-10 01:34:00,0.0,1.92532,0.00035,388.310,0.090,1.3713,0.0042,140.000,45.000,33810.13834,1.95247,395.014,38.440,45.066,45.000,0.00,0.10,-272.70,-272.77,-6,887,-12,29.4,25.8,7.8,29.1,26.6,8.0,5.73,1.66,6.5,32.9
2015-07-10 01:35:00,0.0,1.92510,0.00038,388.252,0.073,1.3651,0.0030,140.001,45.000,33794.41422,1.95213,394.919,38.444,45.066,45.000,0.00,0.10,-272.70,-272.76,-5,885,-12,29.5,25.7,7.8,29.1,26.5,7.9,5.73,1.83,6.5,33.0
2015-07-10 01:36:00,0.0,1.92494,0.00023,388.377,0.127,1.3672,0.0026,139.998,45.000,33785.04029,1.95205,395.047,38.483,45.066,45.000,0.00,0.10,-272.71,-272.78,-6,884,-13,29.5,25.8,7.8,29.1,26.4,7.9,5.73,1.62,6.5,33.0
2015-07-10 01:37:00,0.0,1.92520,0.00059,388.425,0.071,1.3630,0.0088,139.997,45.000,33778.18007,1.95215,395.087,38.478,45.066,45.000,0.00,0.10,-272.70,-272.77,-5,884,-13,29.5,25.5,7.6,29.1,26.3,7.8,5.73,1.81,6.5,33.0
2015-07-10 01:38:00,0.0,1.92532,0.00068,388.256,0.147,1.3465,0.0032,139.999,45.000,33771.88310,1.95201,394.833,38.490,45.066,45.000,0.00,0.10,-272.70,-272.76,-6,883,-13,29.5,25.3,7.5,29.2,26.3,7.9,5.73,1.67,6.5,33.0
2015-07-10 01:39:00,0.0,1.92563,0.00036,388.261,0.133,1.3567,0.0062,140.003,45.000,33762.66809,1.95247,394.883,38.499,45.065,45.000,0.00,0.10,-272.70,-272.77,-5,882,-13,29.5,25.8,7.8,29.2,26.1,7.7,5.73,1.73,6.5,33.1
2015-07-10 01:40:00,0.0,1.92529,0.00049,388.135,0.162,1.3756,0.0052,139.999,45.000,33751.09793,1.95258,394.845,38.500,45.066,45.000,0.00,0.10,-272.71,-272.77,-6,880,-13,29.5,25.9,7.9,29.1,26.0,7.6,5.73,1.79,6.5,33.1
2015-07-10 01:41:00,0.0,1.92568,0.00052,388.437,0.111,1.3692,0.0017,140.005,45.000,33746.57400,1.95276,395.131,38.501,45.065,45.000,0.00,0.10,-272.70,-272.77,-5,881,-13,29.4,25.7,7.8,29.2,26.3,7.8,5.73,1.64,6.5,33.1
2015-07-10 01:42:00,0.0,1.92606,0.00037,388.283,0.053,1.3480,0.0078,139.998,45.000,33740.53918,1.95277,394.869,38.522,45.066,45.000,0.00,0.10,-272.70,-272.77,-6,879,-13,29.5,25.2,7.5,29.2,26.4,7.9,5.73,1.84,6.5,33.1
2015-07-10 01:43:00,0.0,1.92666,0.00049,388.194,0.088,1.3432,0.0032,139.996,45.000,33736.09065,1.95326,394.746,38.561,45.066,45.000,0.00,0.10,-272.70,-272.78,-5,880,-13,29.5,25.3,7.6,29.1,26.2,7.8,5.73,1.62,6.5,33.1
2015-07-10 01:44:00,0.0,1.92563,0.00048,388.270,0.090,1.3605,0.0026,139.998,45.000,33730.90351,1.95260,394.909,38.599,45.065,45.000,0.00,0.10,-272.70,-272.77,-6,879,-13,29.5,25.6,7.8,29.2,26.0,7.7,5.73,1.79,6.5,33.1
2015-07-10 01:45:00,0.0,1.92553,0.00048,388.282,0.063,1.3686,0.0036,139.998,45.000,33727.36221,1.95269,394.965,38.623,45.065,44.999,0.00,0.10,-272.70,-272.77,-6,879,-13,29.5,25.8,7.8,29.1,26.0,7.6,5.73,1.69,6.5,33.1
2015-07-10 01:46:00,0.0,1.92601,0.00050,388.183,0.077,1.3571,0.0068,140.003,45.000,33726.15058,1.95290,394.815,38.625,45.065,44.999,0.00,0.10,-272.70,-272.78,-6,879,-13,29.5,25.4,7.6,29.2,26.1,7.8,5.73,1.71,6.5,33.2
2015-07-10 01:47:00,0.0,1.92565,0.00037,388.095,0.097,1.3553,0.0023,139.999,45.000,33724.80725,1.95245,394.708,38.625,45.065,45.000,0.00,0.10,-272.70,-272.77,-6,878,-13,29.5,25.6,7.7,29.2,26.2,7.8,5.73,1.81,6.5,33.1